Yellow Mule RAWS (NWS)

Elevation
9200ft
Aggregated by Synoptic Data
Date/Time Wind Direction Wind Speed knots Wind Gust knots RH % Accumulated Precip Inches Air Temp Fahrenheit
2024-02-24 02:04 SSW 25 32 62 0.28 20
2024-02-24 01:04 SSW 21 32 60 0.28 20
2024-02-24 00:04 SSW 18 29 58 0.28 20
2024-02-23 23:04 S 9 17 65 0.28 18
2024-02-23 22:04 S 7 14 56 0.28 19
2024-02-23 21:04 S 9 17 54 0.28 18
2024-02-23 20:04 SSW 9 14 51 0.28 18
2024-02-23 19:04 S 11 21 51 0.28 19
2024-02-23 18:04 SSW 10 20 49 0.28 20
2024-02-23 17:04 SSW 13 19 49 0.28 23
2024-02-23 16:04 SSW 12 21 50 0.28 24
2024-02-23 15:04 SSW 13 22 51 0.28 25
2024-02-23 14:04 SW 13 20 50 0.28 25
2024-02-23 13:04 SW 14 23 54 0.28 24
2024-02-23 12:04 SW 11 19 52 0.28 24
2024-02-23 11:04 SSW 10 22 58 0.28 23
2024-02-23 10:04 SSW 13 22 65 0.28 20
2024-02-23 09:04 SW 17 24 76 0.28 17
2024-02-23 08:04 SW 17 26 87 0.28 14
2024-02-23 07:04 SW 16 22 89 0.28 14
2024-02-23 06:04 SW 11 21 88 0.28 14
2024-02-23 05:04 SSW 14 20 87 0.28 14
2024-02-23 04:04 SSW 11 20 83 0.28 14
2024-02-23 03:04 SSW 14 23 80 0.28 15
2024-02-23 02:04 SSW 16 25 80 0.28 16
2024-02-23 01:04 SSW 15 24 83 0.28 17
2024-02-23 00:04 SSW 17 27 84 0.28 17
2024-02-22 23:04 SSW 14 18 82 0.28 17
2024-02-22 22:04 SW 11 16 79 0.28 17
2024-02-22 21:04 SW 10 16 76 0.28 18
2024-02-22 20:04 SW 11 19 76 0.28 18
2024-02-22 19:04 SW 14 23 78 0.28 18
2024-02-22 18:04 SW 14 19 80 0.28 19
2024-02-22 17:04 SW 13 22 72 0.28 21
2024-02-22 16:04 SSW 15 23 68 0.28 21
2024-02-22 15:04 SSW 11 22 80 0.28 21
2024-02-22 14:04 SSW 13 20 73 0.28 23
2024-02-22 13:04 SSW 15 20 72 0.28 23
2024-02-22 12:04 SSW 12 17 79 0.28 23
2024-02-22 11:04 SW 7 12 78 0.28 23
2024-02-22 10:04 SW 7 10 90 0.28 20
2024-02-22 09:04 SSW 7 10 92 0.28 19
2024-02-22 08:04 SW 8 12 93 0.28 18
2024-02-22 07:04 SSW 8 12 93 0.28 18
2024-02-22 06:04 SW 11 15 93 0.28 17
2024-02-22 05:04 SSW 5 12 94 0.28 18
2024-02-22 04:04 SSW 10 15 94 0.28 19
2024-02-22 03:04 SSW 9 14 94 0.28 18
2024-02-22 02:04 SSW 10 17 94 0.28 18